Location: Brantley
(31.5822°N, 86.2569°W)
Time: 02:23:13
(UTC+00:00)

Transit 2A Rocket - Pass Details

Date: 25 February 2026
Orbit: 583 x 900 km, 66.7° (Epoch: 5 March)

Event Time Altitude Azimuth Distance (km) Brightness Sun altitude
Rises 18:19:22 0° 173° (S) 3,430 9.0 49.2°
Reaches altitude 10° 18:22:10 10° 161° (SSE) 2,527 8.5 49.1°
Maximum altitude 18:27:00 26° 106° (ESE) 1,669 7.1 49.0°
Drops below altitude 10° 18:31:53 10° 52° (NE) 2,574 7.5 48.7°
Sets 18:34:46 0° 40° (NE) 3,507 8.1 48.6°
